Location: Heisler
(52.6701°N, 112.2239°W)
Time: 14:35:53
(UTC+00:00)

Envisat - Pass Details

Date: 06 December 2021
Orbit: 764 x 766 km, 98.2° (Epoch: 26 January)

Event Time Altitude Azimuth Distance (km) Brightness Sun altitude
Rises 10:57:21 0° 29° (NNE) 3,247 6.7 -39.2°
Reaches altitude 10° 11:01:03 10° 56° (ENE) 2,313 6.1 -38.6°
Maximum altitude 11:03:22 13° 84° (E) 2,102 5.9 -38.3°
Drops below altitude 10° 11:05:42 10° 111° (ESE) 2,305 6.0 -37.9°
Sets 11:09:21 0° 139° (SE) 3,224 6.6 -37.4°
